FW7092 Weather Reports


Display with metric or nautical units.
time (UTC)temp
F
wind
direction
speed
MPH
gust
MPH
rain 1hr
in
rain 24hr
in
rain mn
in
humidity
%
barometer
mb
20260510151013 59 232 2.0 3.0 0.00 0.00 0.00 41 1020.4
20260510150507 59 31 1.0 5.0 0.00 0.00 0.00 40 1020.4
20260510150004 59 221 0.0 2.0 0.00 0.00 0.00 44 1020.5
20260510145501 59 356 2.0 3.0 0.00 0.00 0.00 45 1020.2
20260510144957 57 52 0.0 1.0 0.00 0.00 0.00 47 1020.5
20260510144454 58 107 1.0 3.0 0.00 0.00 0.00 46 1020.2
20260510143949 59 64 3.0 5.0 0.00 0.00 0.00 44 1020.2
20260510143445 58 174 0.0 6.0 0.00 0.00 0.00 46 1020.0
20260510142942 58 100 2.0 5.0 0.00 0.00 0.00 47 1020.0
20260510142439 57 51 2.0 3.0 0.00 0.00 0.00 50 1019.9
20260510141935 57 85 3.0 7.0 0.00 0.00 0.00 46 1020.2
20260510141432 57 0 2.0 5.0 0.00 0.00 0.00 54 1019.9
20260510140929 57 164 0.0 3.0 0.00 0.00 0.00 52 1020.0
20260510140420 57 355 2.0 5.0 0.00 0.00 0.00 56 1019.9
20260510135919 57 81 3.0 7.0 0.00 0.00 0.00 56 1019.8
20260510135415 57 135 1.0 3.0 0.00 0.00 0.00 59 1020.0
20260510134913 57 71 2.0 3.0 0.00 0.00 0.00 59 1019.8
20260510134409 56 91 0.0 3.0 0.00 0.00 0.00 58 1019.8
20260510133905 56 149 3.0 5.0 0.00 0.00 0.00 58 1019.7
20260510133402 56 106 3.0 8.0 0.00 0.00 0.00 57 1019.7
20260510132857 56 28 0.0 3.0 0.00 0.00 0.00 60 1019.8
20260510132355 56 85 2.0 6.0 0.00 0.00 0.00 59 1019.9
20260510131852 55 3 3.0 5.0 0.00 0.00 0.00 61 1019.6
20260510131350 55 97 2.0 2.0 0.00 0.00 0.00 64 1019.8
20260510130846 54 4 4.0 6.0 0.00 0.00 0.00 61 1019.8
20260510130343 55 97 4.0 5.0 0.00 0.00 0.00 59 1019.7
20260510125840 54 109 1.0 2.0 0.00 0.00 0.00 65 1019.6
20260510125336 55 46 2.0 5.0 0.00 0.00 0.00 65 1019.6
20260510124833 54 114 3.0 5.0 0.00 0.00 0.00 65 1019.3
20260510124330 54 172 1.0 6.0 0.00 0.00 0.00 66 1019.5
20260510123825 53 68 3.0 3.0 0.00 0.00 0.00 67 1019.2
20260510123321 53 61 2.0 2.0 0.00 0.00 0.00 67 1019.1
20260510122817 52 11 3.0 3.0 0.00 0.00 0.00 71 1019.3
20260510122314 52 73 3.0 6.0 0.00 0.00 0.00 70 1019.1
20260510121810 52 8 1.0 3.0 0.00 0.00 0.00 72 1019.1
20260510121308 52 79 2.0 3.0 0.00 0.00 0.00 72 1019.2
20260510120805 51 73 0.0 5.0 0.00 0.00 0.00 73 1019.0
20260510120301 52 106 1.0 5.0 0.00 0.00 0.00 72 1019.0
20260510115757 51 69 2.0 3.0 0.00 0.00 0.00 73 1019.0
20260510115256 51 55 3.0 5.0 0.00 0.00 0.00 73 1019.0
20260510114755 51 97 4.0 6.0 0.00 0.00 0.00 73 1018.8
20260510114253 51 122 3.0 5.0 0.00 0.00 0.00 74 1018.5
20260510113748 50 76 3.0 6.0 0.00 0.00 0.00 74 1018.4
20260510113246 50 131 1.0 3.0 0.00 0.00 0.00 75 1018.5
20260510112742 50 77 4.0 5.0 0.00 0.00 0.00 75 1018.1
20260510112238 50 86 4.0 5.0 0.00 0.00 0.00 76 1018.3
20260510111734 49 17 2.0 5.0 0.00 0.00 0.00 79 1018.0
20260510111232 49 155 1.0 5.0 0.00 0.00 0.00 80 1018.2
20260510110731 49 97 1.0 3.0 0.00 0.00 0.00 81 1017.9
20260510110229 48 48 3.0 5.0 0.00 0.00 0.00 81 1018.0
20260510105728 48 270 1.0 2.0 0.00 0.00 0.00 81 1017.5
20260510105224 48 331 1.0 2.0 0.00 0.00 0.00 80 1017.5
20260510104720 48 176 1.0 2.0 0.00 0.00 0.00 79 1017.4
20260510104218 48 204 0.0 1.0 0.00 0.00 0.00 76 1017.4
20260510103714 48 26 2.0 2.0 0.00 0.00 0.00 75 1017.3
20260510103212 48 277 0.0 2.0 0.00 0.00 0.00 75 1017.2
20260510102711 48 210 0.0 1.0 0.00 0.00 0.00 76 1017.1
20260510102207 49 265 1.0 5.0 0.00 0.00 0.00 76 1016.9
20260510101705 48 326 1.0 3.0 0.00 0.00 0.00 76 1016.9
20260510101203 48 16 0.0 1.0 0.00 0.00 0.00 79 1016.7
20260510100658 48 281 1.0 2.0 0.00 0.00 0.00 80 1016.7
20260510100156 47 239 1.0 2.0 0.00 0.00 0.00 83 1016.5
20260510095651 47 295 0.0 1.0 0.00 0.00 0.00 86 1016.6
20260510095147 46 248 1.0 2.0 0.00 0.00 0.00 87 1016.2
20260510094646 46 226 0.0 0.0 0.00 0.00 0.00 86 1016.2
20260510094142 46 226 0.0 0.0 0.00 0.00 0.00 85 1016.2
20260510093638 46 240 0.0 0.0 0.00 0.00 0.00 85 1015.9
20260510093136 47 240 0.0 0.0 0.00 0.00 0.00 85 1015.9
20260510092632 47 235 0.0 0.0 0.00 0.00 0.00 84 1015.8
20260510092127 48 232 0.0 0.0 0.00 0.00 0.00 85 1015.5
20260510091623 47 205 0.0 0.0 0.00 0.00 0.00 84 1015.6
20260510091120 48 205 0.0 0.0 0.00 0.00 0.00 83 1015.6
20260510090617 48 204 0.0 0.0 0.00 0.00 0.00 82 1015.5
20260510090113 49 204 0.0 0.0 0.00 0.00 0.00 80 1015.5
20260510085608 50 205 0.0 0.0 0.00 0.00 0.00 78 1015.1
20260510085104 51 205 0.0 0.0 0.00 0.00 0.00 76 1015.2
20260510084601 51 177 0.0 1.0 0.00 0.00 0.00 75 1015.2
20260510084057 51 117 1.0 2.0 0.00 0.00 0.00 74 1015.4
20260510083554 51 147 1.0 2.0 0.00 0.00 0.00 75 1015.1
20260510083050 51 175 0.0 1.0 0.00 0.00 0.00 75 1015.0
20260510082547 51 170 1.0 1.0 0.00 0.00 0.00 73 1015.2
20260510082042 51 165 0.0 1.0 0.00 0.00 0.00 73 1015.1
20260510081537 51 179 0.0 1.0 0.00 0.00 0.00 73 1014.9
20260510081033 51 155 0.0 1.0 0.00 0.00 0.00 73 1014.9
20260510080532 52 174 0.0 1.0 0.00 0.00 0.00 72 1014.7
20260510080030 52 76 1.0 1.0 0.00 0.00 0.00 71 1014.6
20260510075526 52 116 0.0 1.0 0.00 0.00 0.00 71 1014.7
20260510075023 51 180 0.0 1.0 0.00 0.00 0.00 71 1014.6
20260510074521 51 179 0.0 0.0 0.00 0.00 0.00 72 1014.6
20260510074016 51 197 0.0 0.0 0.00 0.00 0.00 72 1014.5
20260510073512 51 212 0.0 0.0 0.00 0.00 0.00 71 1014.2
20260510073010 51 189 0.0 1.0 0.00 0.00 0.00 71 1014.1
20260510072506 49 78 2.0 6.0 0.00 0.00 0.00 76 1014.2
20260510072001 48 220 0.0 0.0 0.00 0.00 0.00 77 1013.9
20260510071458 48 220 0.0 0.0 0.00 0.00 0.00 77 1014.0
20260510070956 47 220 0.0 0.0 0.00 0.00 0.00 78 1013.9
20260510070454 47 220 0.0 0.0 0.00 0.00 0.00 79 1014.0
20260510065949 47 219 0.0 0.0 0.00 0.00 0.00 80 1013.9
20260510065446 46 224 1.0 1.0 0.00 0.00 0.00 79 1013.8
20260510064942 47 224 0.0 0.0 0.00 0.00 0.00 79 1013.6
20260510064440 49 221 0.0 0.0 0.00 0.00 0.00 77 1013.6
20260510063936 49 220 0.0 0.0 0.00 0.00 0.00 72 1013.4
20260510063432 49 218 0.0 0.0 0.00 0.00 0.00 73 1013.5
20260510062931 50 209 0.0 0.0 0.00 0.00 0.00 72 1013.4
20260510062430 50 209 0.0 0.0 0.00 0.00 0.00 71 1013.3
20260510061926 51 209 0.0 0.0 0.00 0.00 0.00 69 1013.3
20260510061423 52 202 0.0 0.0 0.00 0.00 0.00 68 1013.3
20260510060919 52 202 0.0 0.0 0.00 0.00 0.00 66 1013.3
20260510060416 53 201 0.0 0.0 0.00 0.00 0.00 65 1013.2
20260510055912 53 235 0.0 0.0 0.00 0.00 0.00 63 1013.1
20260510055408 53 233 0.0 0.0 0.00 0.00 0.00 63 1013.0
20260510054900 53 248 0.0 0.0 0.00 0.00 0.00 64 1013.0
20260510054356 53 217 0.0 0.0 0.00 0.00 0.00 64 1012.8
20260510053851 54 234 0.0 0.0 0.00 0.00 0.00 63 1012.9
20260510053347 54 253 0.0 1.0 0.00 0.00 0.00 62 1012.8
20260510052843 54 234 0.0 0.0 0.00 0.00 0.00 62 1012.9
20260510052339 54 233 0.0 0.0 0.00 0.00 0.00 61 1012.8
20260510051836 54 227 0.0 0.0 0.00 0.00 0.00 63 1012.7
20260510051333 54 228 0.0 0.0 0.00 0.00 0.00 61 1012.5
20260510050830 55 234 0.0 0.0 0.00 0.00 0.00 60 1012.5
20260510050326 55 227 0.0 0.0 0.00 0.00 0.00 59 1012.4
20260510045823 56 224 0.0 0.0 0.00 0.00 0.00 59 1012.4
20260510045320 56 234 0.0 0.0 0.00 0.00 0.00 59 1012.2
20260510044817 57 233 0.0 1.0 0.00 0.00 0.00 57 1012.1
20260510044314 57 231 0.0 1.0 0.00 0.00 0.00 57 1011.9
20260510043810 58 317 1.0 2.0 0.00 0.00 0.00 56 1011.7
20260510043306 58 196 0.0 2.0 0.00 0.00 0.00 55 1011.6
20260510042804 58 301 1.0 2.0 0.00 0.00 0.00 55 1011.5
20260510042259 59 29 2.0 2.0 0.00 0.00 0.00 55 1011.3
20260510041756 59 12 3.0 7.0 0.00 0.00 0.00 54 1011.2
20260510041254 59 23 2.0 6.0 0.00 0.00 0.00 54 1011.2
20260510040751 60 280 1.0 7.0 0.00 0.00 0.00 55 1011.2
20260510040248 60 317 2.0 8.0 0.00 0.00 0.00 56 1011.3
20260510035743 60 312 6.0 9.0 0.00 0.05 0.05 56 1011.1
20260510035239 59 226 3.0 7.0 0.00 0.05 0.05 63 1011.0
20260510034735 59 353 1.0 5.0 0.00 0.05 0.05 70 1010.8
20260510034233 59 289 3.0 7.0 0.00 0.05 0.05 76 1010.9
20260510033729 59 284 3.0 6.0 0.00 0.05 0.05 80 1010.7
20260510033227 59 219 3.0 6.0 0.00 0.05 0.05 82 1010.6
20260510032723 58 230 3.0 5.0 0.00 0.05 0.05 83 1010.5
20260510032219 58 273 4.0 5.0 0.00 0.05 0.05 84 1010.5
20260510031714 58 324 3.0 3.0 0.00 0.05 0.05 84 1010.4
20260510031210 58 237 3.0 5.0 0.00 0.05 0.05 86 1010.3
20260510030709 58 256 4.0 5.0 0.00 0.05 0.05 85 1010.0
20260510030208 58 241 3.0 3.0 0.00 0.05 0.05 86 1009.6
20260510025705 57 235 4.0 5.0 0.00 0.05 0.05 87 1009.5
20260510025202 57 216 4.0 5.0 0.00 0.05 0.05 87 1009.5
20260510024659 57 233 2.0 2.0 0.00 0.05 0.05 86 1009.4
20260510024155 57 222 2.0 3.0 0.00 0.05 0.05 86 1009.3
20260510023651 57 213 3.0 3.0 0.00 0.05 0.05 85 1009.1
20260510023148 57 209 3.0 5.0 0.00 0.05 0.05 85 1009.1
20260510022643 57 203 5.0 6.0 0.00 0.05 0.05 86 1009.3
20260510022138 56 218 5.0 6.0 0.00 0.05 0.05 87 1009.1
20260510021634 57 216 4.0 5.0 0.00 0.05 0.05 86 1008.9
20260510021131 57 215 5.0 6.0 0.00 0.05 0.05 86 1008.8
20260510020626 56 218 5.0 6.0 0.00 0.05 0.05 87 1008.8
20260510020121 56 206 3.0 5.0 0.00 0.05 0.05 87 1008.6
20260510015618 57 224 5.0 6.0 0.00 0.05 0.05 87 1008.7
20260510015114 57 217 5.0 6.0 0.00 0.05 0.05 86 1008.7
20260510014610 57 212 4.0 5.0 0.00 0.05 0.05 86 1008.5
20260510014108 58 226 5.0 6.0 0.00 0.05 0.05 86 1008.6
20260510013601 58 211 5.0 6.0 0.00 0.05 0.05 86 1008.6
20260510013058 58 212 5.0 7.0 0.00 0.05 0.05 86 1008.5
20260510012551 59 215 4.0 5.0 0.00 0.05 0.05 84 1008.4
20260510012048 59 214 5.0 7.0 0.00 0.05 0.05 82 1008.2
20260510011548 59 220 5.0 7.0 0.00 0.05 0.05 82 1008.3
20260510011044 60 218 5.0 8.0 0.00 0.05 0.05 81 1008.3
20260510010541 60 228 9.0 10.0 0.00 0.05 0.05 80 1008.4
20260510010038 60 224 7.0 9.0 0.00 0.05 0.05 81 1008.4
20260510005533 60 215 7.0 9.0 0.00 0.05 0.05 79 1008.0
20260510005031 60 212 5.0 7.0 0.00 0.05 0.05 79 1008.1
20260510004529 60 205 3.0 5.0 0.00 0.05 0.05 79 1008.1
20260510004027 61 229 3.0 5.0 0.00 0.05 0.05 79 1008.0
20260510003523 61 221 4.0 5.0 0.00 0.05 0.05 78 1007.9
20260510003018 61 229 3.0 3.0 0.00 0.05 0.05 77 1007.8
20260510002514 62 232 4.0 6.0 0.00 0.05 0.05 76 1007.9
20260510002011 62 232 6.0 7.0 0.00 0.05 0.05 75 1007.9
20260510001508 61 239 5.0 9.0 0.00 0.05 0.05 75 1007.8
20260510001006 61 227 4.0 5.0 0.00 0.05 0.05 77 1007.7
20260510000501 62 239 3.0 3.0 0.00 0.05 0.05 76 1007.7
20260509235958 62 212 4.0 5.0 0.00 0.05 0.05 76 1007.7
20260509235455 62 229 4.0 6.0 0.00 0.05 0.05 75 1007.8
20260509234951 63 210 5.0 7.0 0.00 0.05 0.05 74 1007.7
20260509234448 63 228 5.0 7.0 0.00 0.05 0.05 72 1007.7
20260509233946 63 243 7.0 8.0 0.00 0.05 0.05 72 1007.8
20260509233444 63 239 9.0 11.0 0.00 0.05 0.05 71 1007.7
20260509232939 63 218 8.0 10.0 0.00 0.05 0.05 73 1007.6
20260509232438 63 213 6.0 9.0 0.00 0.05 0.05 73 1007.7
20260509231933 64 199 8.0 13.0 0.00 0.05 0.05 71 1007.5
20260509231429 64 217 12.0 14.0 0.00 0.05 0.05 70 1007.7
20260509230928 64 231 9.0 11.0 0.00 0.05 0.05 70 1007.6
20260509230425 64 239 9.0 11.0 0.00 0.05 0.05 71 1007.7
20260509225920 64 225 10.0 11.0 0.00 0.05 0.05 70 1007.8
20260509225417 64 219 10.0 13.0 0.00 0.05 0.05 71 1007.7
20260509224913 64 235 7.0 11.0 0.00 0.05 0.05 72 1007.6
20260509224408 63 224 7.0 13.0 0.00 0.05 0.05 74 1007.6
20260509223906 63 223 9.0 13.0 0.00 0.05 0.05 73 1007.7
20260509223402 63 196 7.0 13.0 0.00 0.05 0.05 72 1007.7
20260509222900 63 205 11.0 11.0 0.00 0.05 0.05 73 1007.7
20260509222355 63 231 9.0 14.0 0.00 0.05 0.05 71 1007.7
20260509221850 63 249 8.0 14.0 0.00 0.05 0.05 74 1007.6
20260509221348 62 215 9.0 13.0 0.00 0.05 0.05 75 1007.7
20260509220843 62 233 11.0 16.0 0.00 0.05 0.05 74 1007.7
20260509220339 61 263 14.0 18.0 0.00 0.05 0.05 76 1007.6
20260509215834 62 242 11.0 15.0 0.00 0.05 0.05 78 1007.6
20260509215331 61 222 13.0 17.0 0.00 0.05 0.05 76 1007.8
20260509214828 61 240 11.0 16.0 0.00 0.05 0.05 78 1007.6
20260509214325 62 248 12.0 15.0 0.00 0.05 0.05 76 1007.4
20260509213823 62 225 9.0 14.0 0.00 0.05 0.05 80 1007.3
20260509213317 60 226 14.0 17.0 0.00 0.05 0.05 76 1007.4
20260509212816 60 229 11.0 16.0 0.07 0.05 0.05 82 1007.2
20260509212313 58 246 12.0 18.0 0.28 0.05 0.05 86 1007.6
20260509211809 60 252 18.0 22.0 0.00 0.00 0.00 77 1007.6
20260509211305 60 263 17.0 21.0 0.00 0.00 0.00 74 1006.9
20260509210802 66 249 26.0 31.0 0.00 0.00 0.00 56 1006.7
20260509210300 69 228 16.0 22.0 0.00 0.00 0.00 59 1005.9
20260509205759 70 223 15.0 26.0 0.00 0.00 0.00 55 1005.8
20260509205254 70 197 14.0 24.0 0.00 0.00 0.00 55 1005.8
20260509204750 70 229 15.0 20.0 0.00 0.00 0.00 55 1005.4
20260509204247 70 243 21.0 24.0 0.00 0.00 0.00 54 1005.7
20260509203743 70 209 16.0 24.0 0.00 0.00 0.00 54 1005.7
20260509203241 70 212 17.0 20.0 0.00 0.00 0.00 54 1005.7
20260509202736 71 248 13.0 21.0 0.00 0.00 0.00 56 1005.6
20260509202233 71 239 18.0 24.0 0.00 0.00 0.00 56 1005.8
20260509201727 71 235 17.0 23.0 0.00 0.00 0.00 56 1005.9
20260509201224 72 244 16.0 23.0 0.00 0.00 0.00 55 1005.8
20260509200720 71 228 11.0 17.0 0.00 0.00 0.00 58 1006.2
20260509200215 71 227 18.0 23.0 0.00 0.00 0.00 57 1006.4
20260509195711 71 240 19.0 25.0 0.00 0.00 0.00 55 1006.3
20260509195207 70 239 12.0 20.0 0.00 0.00 0.00 59 1006.4
20260509194701 71 251 16.0 22.0 0.00 0.00 0.00 58 1006.4
20260509194158 69 225 21.0 25.0 0.00 0.00 0.00 60 1006.5
20260509193654 71 212 21.0 26.0 0.00 0.00 0.00 60 1006.7
20260509193149 70 236 12.0 18.0 0.00 0.00 0.00 61 1006.8
20260509192646 71 220 19.0 25.0 0.00 0.00 0.00 61 1006.7
20260509192141 70 229 20.0 25.0 0.00 0.00 0.00 62 1006.6
20260509191641 71 240 18.0 23.0 0.00 0.00 0.00 60 1006.6
20260509191138 70 227 20.0 24.0 0.00 0.00 0.00 61 1006.8
20260509190635 70 213 16.0 25.0 0.00 0.00 0.00 64 1006.8
20260509190132 71 198 16.0 21.0 0.00 0.00 0.00 62 1007.0
20260509185630 70 253 14.0 23.0 0.00 0.00 0.00 63 1006.9
20260509185125 70 229 15.0 22.0 0.00 0.00 0.00 61 1006.9
20260509184624 70 210 16.0 20.0 0.00 0.00 0.00 66 1007.0
20260509184120 70 200 11.0 18.0 0.00 0.00 0.00 65 1006.9
20260509183616 69 240 12.0 17.0 0.00 0.00 0.00 67 1007.1
20260509183112 68 221 13.0 23.0 0.00 0.00 0.00 66 1007.1
20260509182608 67 230 15.0 23.0 0.00 0.00 0.00 66 1007.4
20260509182105 67 219 18.0 22.0 0.00 0.00 0.00 68 1007.5
20260509181603 67 229 14.0 21.0 0.00 0.00 0.00 68 1007.4
20260509181100 68 211 15.0 20.0 0.00 0.00 0.00 68 1007.4
20260509180556 68 245 15.0 22.0 0.00 0.00 0.00 66 1007.3
20260509180054 68 226 17.0 20.0 0.00 0.00 0.00 69 1007.3
20260509175549 67 202 14.0 16.0 0.00 0.00 0.00 71 1007.5
20260509175047 66 245 11.0 21.0 0.00 0.00 0.00 72 1007.5
20260509174542 68 219 14.0 22.0 0.00 0.00 0.00 69 1007.3
20260509174038 67 224 16.0 21.0 0.00 0.00 0.00 68 1007.2
20260509173532 67 235 14.0 21.0 0.00 0.00 0.00 69 1007.3
20260509173029 66 256 14.0 18.0 0.00 0.00 0.00 69 1007.5
20260509172526 65 216 18.0 25.0 0.00 0.00 0.00 70 1007.5
20260509172021 66 216 10.0 21.0 0.00 0.00 0.00 73 1007.5
20260509171518 66 210 14.0 20.0 0.00 0.00 0.00 71 1007.4
20260509171015 66 231 15.0 22.0 0.00 0.00 0.00 69 1007.7
20260509170510 65 193 16.0 23.0 0.00 0.00 0.00 71 1007.5
20260509170006 65 221 17.0 22.0 0.00 0.00 0.00 71 1007.8
20260509165505 65 212 15.0 18.0 0.00 0.00 0.00 72 1007.7
20260509165001 65 209 14.0 20.0 0.00 0.00 0.00 73 1007.7
20260509164457 64 221 14.0 22.0 0.00 0.00 0.00 72 1007.5
20260509163953 64 207 13.0 18.0 0.00 0.00 0.00 73 1007.7
20260509163451 64 229 12.0 15.0 0.00 0.00 0.00 73 1007.9
20260509162949 64 198 12.0 17.0 0.00 0.00 0.00 73 1007.9
20260509162449 64 220 12.0 15.0 0.00 0.00 0.00 75 1007.8
20260509161944 64 223 13.0 18.0 0.00 0.00 0.00 75 1008.0
20260509161441 63 213 14.0 17.0 0.00 0.00 0.00 76 1007.8
20260509160936 63 213 14.0 17.0 0.00 0.00 0.00 76 1007.9
20260509160432 62 210 13.0 15.0 0.00 0.00 0.00 76 1007.9
20260509155927 62 211 12.0 15.0 0.00 0.00 0.00 78 1008.1
20260509155424 62 228 11.0 16.0 0.00 0.00 0.00 80 1008.1
20260509154920 62 235 11.0 13.0 0.00 0.00 0.00 78 1008.2
20260509154417 62 206 10.0 14.0 0.00 0.00 0.00 79 1008.1
20260509153914 61 199 10.0 13.0 0.00 0.00 0.00 81 1008.1
20260509153411 61 241 12.0 15.0 0.00 0.00 0.00 78 1007.9
20260509152908 61 223 12.0 14.0 0.00 0.00 0.00 80 1008.4
20260509152404 61 219 9.0 13.0 0.00 0.00 0.00 80 1008.5
20260509151901 60 237 9.0 14.0 0.00 0.00 0.00 81 1008.5